Simultaneous Nadir Overpasses (SNOs) Predictions

Prediction of SNOs between GOES-16 and TERRA Satellite Orbit:

Table of predicted SNOs for the next 14.0 days since TLE Epoch: 5/20/2023
Index Date Time (GOES-16) GOES-16 Lat,Lon TERRA Lat,Lon Distance(km) Time Diff (sec)
1 05/22/2023 03:00:28 -0.01, -75.20 0.31, -73.83 156.27 80
2 05/22/2023 15:23:19 0.01, -75.21 0.73, -78.74 401.00 80
3 05/24/2023 15:04:22 0.00, -75.22 -0.10, -74.81 47.17 80
4 05/26/2023 14:48:05 -0.01, -75.24 -0.94, -70.88 496.20 80
5 05/27/2023 03:11:06 0.00, -75.24 -0.12, -75.82 65.52 80
6 05/29/2023 02:52:09 0.00, -75.27 0.74, -71.89 384.67 80
7 05/29/2023 15:15:00 0.00, -75.28 0.33, -76.79 171.70 80
8 05/31/2023 14:56:02 -0.00, -75.31 -0.50, -72.85 279.38 80
9 06/01/2023 03:19:03 -0.01, -75.32 -0.55, -77.80 281.90 80
10 06/03/2023 03:00:05 -0.00, -75.36 0.30, -73.86 169.41 80
